BREEZE-M DEB [TANK] (43869 NORAD) Tracking and Keplerian Element Data

This shows tracking and keplerian element data for the satellite.

Feedback or suggestion? Click here.




ElementValue
Catalog43869
NameBREEZE-M DEB [TANK]
Epoch Orbit66
Epoch Day19.17977759
Epoch Year2019
RAAN95.699
Inclination48.7405
Eccentricity0.7215212
Argument of Perigee6.7427
Mean Anonmoly359.3278
Mean Motion2.27471921
Decay Rate-1.36E-06
L11 43869U 18107C 19019.17977759 -.00000136 00000-0 00000+0 0 9999
L22 43869 48.7405 95.6990 7215212 6.7427 359.3278 2.27471921 668

Live tracking and technical data element details for BREEZE-M DEB [TANK] (NORAD 43869). BREEZE-M DEB [TANK] can be tracked NOW for your location showing map with azimuth and elevation plus other details from your city location.

Track the satellite on the map from your city or location and see movement details for azimuth, elevation, latitude, longitude, range, height, and movement on the map or in text.







IsCatalogInMostPopularTable: catalog: 43869, numindb: 54
Update: records affected: 1



GetName: 43869 BREEZE-M DEB [TANK]

Hit Count: updated at: Sun, 26 May 2019 09:06:15 GMT